Location: Holmbach
(49.5093°N, 8.8411°E)
Time: 20:48:35
(UTC+00:00)

Cosmos 1300 Rocket - Pass Details

Date: 17 June 2025
Orbit: 597 x 619 km, 82.5° (Epoch: 16 July)

Event Time Altitude Azimuth Distance (km) Brightness Sun altitude
Rises 23:16:16 0° 347° (NNW) 2,905 8.6 -17.1°
Reaches altitude 10° 23:18:31 10° 345° (NNW) 1,995 7.4 -17.1°
Maximum altitude 23:22:54 64° 264° (W) 689 3.7 -17.1°
Enters shadow 23:24:44 33° 194° (SSW) 1,045 4.2 -17.1°
